Clearfield, PA

4:04 AM EST on December 15, 2017 (GMT -0500)
Clearfield-Lawrence

Weather History for KFIG - April, 2014

Change the Weather History Date:

Sunday, April 13, 2014

  Actual Average (KDUJ) Record (KDUJ)
Temperature  
Mean Temperature 66 °F -  
Max Temperature 81 °F 57 °F 81 °F (2014)
Min Temperature 51 °F 35 °F 20 °F (1973)
Cooling Degree Days 1    
Growing Degree Days 16 (Base 50)    
Moisture  
Dew Point 43 °F    
Average Humidity 45    
Maximum Humidity 74    
Minimum Humidity 27    
Precipitation  
Precipitation 0.00 in - - ()
Sea Level Pressure  
Sea Level Pressure 29.95 in    
Wind  
Wind Speed 7 mph (SW)    
Max Wind Speed 21 mph    
Max Gust Speed 30 mph    
Visibility 10 miles    
Events      
Averages and records for this station are not official NWS values.
T = Trace of Precipitation, MM = Missing Value Source: NWS Daily Summary

Daily Weather History Graph

Daily Weather History Graph

Search for Another Location

Airport or City:

Trip Planner

Search our weather history database for the weather conditions in past years. The results will help you decide how hot, cold, wet, or windy it might be!

Date:

Astronomy

Apr. 13, 2014 Rise Set
Actual Time 6:37 AM EDT 7:51 PM EDT
Civil Twilight 6:09 AM EDT 8:19 PM EDT
Nautical Twilight 5:35 AM EDT 8:53 PM EDT
Astronomical Twilight 4:59 AM EDT 9:29 PM EDT
Moon 6:26 PM EDT (4/13) 5:36 AM EDT (4/13)
Length of Visible Light 14h 10m
Length of Day
13h 13m
Waxing Gibbous, 97% of the Moon is Illuminated
Apr 13
Waxing Gibbous
Apr 15
Full
Apr 22
Last Quarter
Apr 29
New
May 6
First Quarter

Hourly Weather History & Observations

Time (EDT) Temp. Dew Point Humidity Pressure Visibility Wind Dir Wind Speed Gust Speed Precip Events Conditions
12:54 AM 52.0 °F 33.1 °F 49% 30.03 in 10.0 mi North 4.6 mph - N/A   Overcast
1:54 AM 51.1 °F 34.0 °F 52% 30.02 in 10.0 mi NNE 4.6 mph - N/A   Partly Cloudy
2:54 AM 51.1 °F 33.1 °F 50% 30.01 in 10.0 mi NNE 3.5 mph - N/A   Scattered Clouds
3:54 AM 52.0 °F 36.0 °F 54% 30.00 in 10.0 mi North 4.6 mph - N/A   Overcast
4:54 AM 54.0 °F 37.9 °F 55% 30.00 in 10.0 mi North 4.6 mph - N/A   Mostly Cloudy
5:54 AM 53.1 °F 39.0 °F 59% 30.01 in 10.0 mi Calm Calm - N/A   Mostly Cloudy
6:54 AM 52.0 °F 41.0 °F 66% 30.01 in 10.0 mi Calm Calm - N/A   Clear
7:54 AM 52.0 °F 44.1 °F 74% 30.03 in 10.0 mi Calm Calm - N/A   Clear
8:54 AM 61.0 °F 46.0 °F 58% 30.01 in 10.0 mi SSW 3.5 mph - N/A   Clear
9:54 AM 66.9 °F 46.9 °F 49% 30.01 in 10.0 mi SSW 5.8 mph - N/A   Clear
10:54 AM 71.1 °F 48.0 °F 44% 30.00 in 10.0 mi SW 16.1 mph 23.0 mph N/A   Partly Cloudy
11:54 AM 73.9 °F 46.9 °F 38% 29.98 in 10.0 mi SW 18.4 mph 29.9 mph N/A   Clear
12:54 PM 75.0 °F 48.0 °F 38% 29.95 in 10.0 mi SSW 20.7 mph 25.3 mph N/A   Clear
1:54 PM 78.1 °F 46.0 °F 32% 29.92 in 10.0 mi SW 17.3 mph 25.3 mph N/A   Clear
2:54 PM 79.0 °F 46.0 °F 31% 29.91 in 10.0 mi SW 17.3 mph 29.9 mph N/A   Clear
3:54 PM 80.1 °F 44.1 °F 28% 29.89 in 10.0 mi SSW 18.4 mph 25.3 mph N/A   Clear
4:54 PM 80.1 °F 43.0 °F 27% 29.89 in 10.0 mi SW 13.8 mph 28.8 mph N/A   Clear
5:54 PM 81.0 °F 44.1 °F 27% 29.88 in 10.0 mi SW 12.7 mph 20.7 mph N/A   Clear
6:54 PM 77.0 °F 43.0 °F 30% 29.88 in 10.0 mi SW 8.1 mph - N/A   Clear
7:54 PM 75.0 °F 44.1 °F 33% 29.89 in 10.0 mi SSW 5.8 mph - N/A   Clear
8:54 PM 72.0 °F 44.1 °F 37% 29.88 in 10.0 mi South 3.5 mph - N/A   Clear
9:54 PM 68.0 °F 45.0 °F 43% 29.88 in 10.0 mi Calm Calm - N/A   Clear
10:54 PM 63.0 °F 45.0 °F 52% 29.88 in 10.0 mi NNW 3.5 mph - N/A   Clear
11:54 PM 62.1 °F 44.1 °F 52% 29.87 in 10.0 mi Variable 3.5 mph - N/A   Clear